Home > Weather > Burgdorf > Past weeks

Flag for Switzerland Past Weather in Burgdorf, Bern, Switzerland — Yesterday and Last 2 Weeks

Now
70 °F

Broken clouds.


Feels Like: 70 °F
Forecast: 60 / 75 °F
Wind: No wind

Location: Bern / Belp

Current Time: Jul 23, 2016 at 11:26:04 AM

Latest Report: Jul 23, 2016 at 10:50 AM


Visibility: N/A

Pressure: 30.07 "Hg (28.24 "Hg at 539m altitude)

Humidity: 83%

Dew Point: 64 °F

Location of BurgdorfLocation

Past Weather in Burgdorf — Graph

°F

Burgdorf Temperature Yesterday

Maximum temperature yesterday: 75 °F (at 5:50 PM)
Minimum temperature yesterday: 64 °F (at 4:50 AM)
Average temperature yesterday: 68 °F

High & Low Weather Summary for the Past Weeks

 TemperatureHumidityPressure
High91 °F (Jul 19, 5:50 PM)100% (Jul 9, 5:20 AM)30.33 "Hg (Jul 9, 5:20 AM)
Low43 °F (Jul 16, 4:50 AM)26% (Jul 19, 5:20 PM)29.95 "Hg (Jul 10, 4:20 PM)
Average67 °F75%30.11 "Hg
* Reported Jul 8 10:20 AM — Jul 23 10:20 AM, Burgdorf, Weather by CustomWeather, © 2016

Note: Actual official high and low records may vary slightly from our data, if they occured in-between our weather recording intervals... More about our weather records

Advertising

Burgdorf Weather History for the Previous 24 Hours

Scroll right to see more
 ConditionsComfort  
Time TempWeatherWind HumidityBarometerVisibility
10:20 AM
Sat, Jul 23
68 °FPartly sunny.2 mph88%30.07 "HgN/A
9:50 AM66 °FPartly sunny.2 mph88%30.07 "HgN/A
9:20 AM66 °FPartly sunny.2 mph88%30.07 "HgN/A
8:50 AM66 °FBroken clouds.3 mph88%30.07 "HgN/A
8:20 AM64 °FBroken clouds.2 mph94%30.07 "Hg5 mi
7:50 AM66 °FBroken clouds.2 mph94%30.07 "Hg5 mi
7:20 AM63 °FPartly sunny.5 mph100%30.07 "Hg5 mi
6:50 AM63 °FPassing clouds.5 mph94%30.07 "Hg5 mi
6:20 AM63 °FPassing clouds.6 mph100%30.04 "Hg5 mi
5:50 AM63 °FFog.5 mph100%30.07 "Hg3 mi
5:20 AM63 °FPartly cloudy.6 mph100%30.04 "Hg6 mi
4:50 AM63 °FPassing clouds.2 mph100%30.04 "Hg4 mi
4:20 AM63 °FSprinkles. Passing clouds.1 mph100%30.07 "Hg4 mi
3:50 AM63 °FMostly cloudy.3 mph100%30.07 "Hg5 mi
3:20 AM63 °FMostly cloudy.1 mph100%30.07 "Hg4 mi
2:50 AM63 °FLight rain. Partly cloudy.1 mph100%30.04 "Hg4 mi
2:20 AM63 °FPartly cloudy.2 mph100%30.07 "Hg5 mi
1:50 AM63 °FMostly cloudy.2 mph100%30.07 "Hg4 mi
1:20 AM63 °FOvercast.1 mph100%30.07 "Hg5 mi
12:50 AM63 °FPassing clouds.2 mph100%30.07 "Hg4 mi
12:20 AM63 °FOvercast.3 mph100%30.07 "HgN/A
11:50 PM
Fri, Jul 22
64 °FOvercast.5 mph94%30.07 "HgN/A
11:20 PM64 °FOvercast.2 mph94%30.07 "HgN/A
10:50 PM64 °FThundershowers. Partly cloudy.3 mph94%30.07 "HgN/A
10:20 PM64 °FPartly cloudy.3 mph94%30.07 "HgN/A
9:50 PM64 °FBroken clouds.8 mph88%30.04 "HgN/A
9:20 PM66 °FPartly sunny.7 mph88%30.04 "HgN/A
8:50 PM68 °FThundershowers. Partly sunny.13 mph83%30.04 "HgN/A
8:20 PM73 °FThundershowers. Scattered clouds.1 mph69%30.01 "HgN/A
7:50 PM75 °FScattered clouds.1 mph61%30.01 "HgN/A
7:20 PM75 °FScattered clouds.2 mph65%30.01 "HgN/A
6:50 PM75 °FScattered clouds.2 mph61%30.01 "HgN/A
6:20 PM75 °FScattered clouds.2 mph61%30.01 "HgN/A
5:50 PM75 °FScattered clouds.5 mph65%30.01 "HgN/A
5:20 PM72 °FPartly sunny.5 mph69%30.01 "HgN/A
4:50 PM72 °FScattered clouds.3 mph69%30.01 "HgN/A
4:20 PM72 °FScattered clouds.3 mph69%30.01 "HgN/A
3:50 PM72 °FScattered clouds.2 mph73%30.01 "HgN/A
3:20 PM70 °FPartly sunny.6 mph78%30.04 "HgN/A
2:50 PM70 °FPartly sunny.3 mph78%30.04 "HgN/A
2:20 PM70 °FPartly sunny.6 mph78%30.04 "HgN/A
1:50 PM68 °FLight rain. Scattered clouds.7 mph88%30.04 "HgN/A
1:20 PM68 °FLight rain. Scattered clouds.8 mph88%30.04 "HgN/A
12:50 PM68 °FLight rain. Scattered clouds.8 mph88%30.01 "HgN/A
12:20 PM70 °FMore clouds than sun.6 mph83%30.01 "HgN/A
11:50 AM70 °FScattered clouds.6 mph78%30.01 "HgN/A
11:20 AM68 °FLight rain. Partly sunny.2 mph83%30.01 "HgN/A
Weather by CustomWeather, © 2016

See weather overviewHow to use our weather pages